Location: Oberkirch
(48.5323°N, 8.0787°E)
Time: 00:28:13
(UTC+00:00)

CUTE 1.7 + AOD 2 - Pass Details

Date: 20 March 2026
Orbit: 535 x 545 km, 97.8° (Epoch: 14 April)

Event Time Altitude Azimuth Distance (km) Brightness Sun altitude
Rises 03:35:31 0° 18° (NNE) 2,723 ? -19.4°
Reaches altitude 10° 03:37:43 10° 25° (NNE) 1,825 ? -19.1°
Maximum altitude 03:41:31 46° 99° (E) 744 ? -18.5°
Drops below altitude 10° 03:45:18 10° 174° (S) 1,811 ? -17.9°
Enters shadow 03:46:25 - 178° (S) 2,268 ? -17.8°
